487P/Siding Spring (2024)

Japanese version
Home page
Updated on February 10, 2025

---------------------------------------------------------------------

* Profile

Designation 487P/2024 N5
Recovery Date July 5, 2024
Magnitude 19.1 mag
Recoverer Martin Masek (Pierre Auger Observatory at Malarguee, Mendoza, Argentina)

* Pictures

* Orbital Elements

Epoch 2024 Oct. 17.0 TT = JDT 2460600.5                                         
T 2024 Oct. 20.65071 TT                                 Rudenko                 
q   1.8149885            (2000.0)            P               Q                  
n   0.08395530     Peri.    0.86459     +0.64436606     -0.59509545             
a   5.1654000      Node    49.21122     +0.69775197     +0.20052106             
e   0.6486258      Incl.   39.37016     +0.31294500     +0.77823692             
P  11.7                                                                         
>From 337 observations 2012 Oct. 17-2024 July 25, mean residual 1".1.            

* Finding Charts

* Magnitudes Graph

        m1 = 7.0 + 5 log d + 30 log r(t - 25)

---------------------------------------------------------------------

The orbital elements are published on M.P.E.C. 2024-O57.
The charts are made with StellaNavigator Ver.11 (AstroArts).
The magnitudes graphs are made with Comet for Windows.

---------------------------------------------------------------------

Copyright(C) Seiichi Yoshida (comet@aerith.net). All rights reserved.